When you browse on this site, cookies collect data to enhance your experience and personalize the content and advertising you see.
Visit our Privacy Policy to learn more. By continuing to use the site, you agree to this use of cookies and data.
  • In Hungary
  • List of Countries
  • For 7 days
  • Water Temperature
  • Satellite Maps
  • Weather Map
  • News
  • Weather Widgets
  • user-avatar
    Login

    Hourly Weather Kingston upon Thames

    Today, 22 January, Tuesday

    Time Temperature Precipitation Wind Pressure Humidity
    00:00 +4°C° 0.1 mm 6 mps 754 mmHg 88%
    01:00 +5°C° 1.8 mm 5 mps 753 mmHg 89%
    02:00 +5°C° 1.8 mm 5 mps 752 mmHg 90%
    03:00 +3°C° 1.8 mm 5 mps 751 mmHg 91%
    04:00 +3°C° 0.3 mm 5 mps 751 mmHg 87%
    05:00 +3°C° 0.3 mm 4 mps 751 mmHg 83%
    06:00 +1°C° 0.3 mm 4 mps 750 mmHg 79%
    07:00 +1°C° 0 mm 3 mps 750 mmHg 79%
    08:00 +1°C° 0 mm 3 mps 750 mmHg 80%
    09:00 +1°C° 0 mm 3 mps 751 mmHg 80%
    10:00 +2°C° 0 mm 3 mps 750 mmHg 75%
    11:00 +3°C° 0 mm 3 mps 750 mmHg 71%
    12:00 +4°C° 0 mm 3 mps 750 mmHg 66%
    13:00 +4°C° 0.1 mm 3 mps 749 mmHg 67%
    14:00 +4°C° 0.1 mm 3 mps 748 mmHg 68%
    15:00 +5°C° 0.1 mm 2 mps 748 mmHg 69%
    16:00 +4°C° 0.4 mm 2 mps 747 mmHg 74%
    17:00 +4°C° 0.4 mm 2 mps 747 mmHg 78%
    18:00 +3°C° 0.4 mm 2 mps 747 mmHg 82%
    19:00 +3°C° 0.1 mm 2 mps 747 mmHg 82%
    20:00 +1°C° 0.1 mm 3 mps 747 mmHg 82%
    21:00 +1°C° 0.1 mm 3 mps 747 mmHg 83%
    22:00 0°C° 0 mm 3 mps 746 mmHg 83%
    23:00 0°C° 0 mm 3 mps 746 mmHg 84%

    Tomorrow, 23 January, Wednesday

    Time Temperature Precipitation Wind Pressure Humidity
    00:00 -1°C° 0 mm 3 mps 746 mmHg 84%
    01:00 -1°C° 0 mm 3 mps 746 mmHg 84%
    02:00 -1°C° 0 mm 3 mps 746 mmHg 84%
    03:00 -1°C° 0 mm 3 mps 747 mmHg 83%
    04:00 -2°C° 0 mm 4 mps 747 mmHg 83%
    05:00 -2°C° 0 mm 4 mps 747 mmHg 83%
    06:00 -2°C° 0 mm 4 mps 747 mmHg 82%
    07:00 -2°C° 0 mm 4 mps 748 mmHg 81%
    08:00 -2°C° 0 mm 4 mps 749 mmHg 79%
    09:00 -2°C° 0 mm 4 mps 749 mmHg 78%
    10:00 -1°C° 0 mm 4 mps 750 mmHg 73%
    11:00 0°C° 0 mm 4 mps 751 mmHg 69%
    12:00 +1°C° 0 mm 4 mps 751 mmHg 64%
    13:00 +1°C° 0 mm 4 mps 752 mmHg 66%
    14:00 +1°C° 0 mm 4 mps 752 mmHg 68%
    15:00 +1°C° 0 mm 4 mps 753 mmHg 70%
    16:00 0°C° 0 mm 4 mps 753 mmHg 74%
    17:00 0°C° 0 mm 3 mps 754 mmHg 77%
    18:00 0°C° 0 mm 3 mps 754 mmHg 81%
    19:00 -1°C° 0 mm 3 mps 755 mmHg 81%
    20:00 -1°C° 0 mm 2 mps 755 mmHg 82%
    21:00 -1°C° 0 mm 2 mps 756 mmHg 82%
    22:00 -1°C° 0 mm 2 mps 756 mmHg 82%
    23:00 -1°C° 0 mm 2 mps 757 mmHg 82%

    Day after tomorrow, 24 January, Thursday

    Time Temperature Precipitation Wind Pressure Humidity
    00:00 -1°C° 0 mm 2 mps 757 mmHg 82%
    01:00 -1°C° 0 mm 2 mps 757 mmHg 81%
    02:00 -1°C° 0 mm 2 mps 758 mmHg 80%
    03:00 -1°C° 0 mm 2 mps 758 mmHg 78%
    04:00 +1°C° 0 mm 1 mps 758 mmHg 77%
    05:00 0°C° 0 mm 1 mps 758 mmHg 75%
    06:00 0°C° 0 mm 1 mps 759 mmHg 73%
    07:00 +1°C° 0 mm 1 mps 759 mmHg 71%
    08:00 +1°C° 0 mm 1 mps 759 mmHg 69%
    09:00 +1°C° 0 mm 1 mps 760 mmHg 67%
    10:00 +2°C° 0 mm 1 mps 760 mmHg 63%
    11:00 +3°C° 0 mm 1 mps 760 mmHg 60%
    12:00 +5°C° 0 mm 1 mps 760 mmHg 57%
    13:00 +4°C° 0 mm 2 mps 760 mmHg 59%
    14:00 +4°C° 0 mm 2 mps 760 mmHg 61%
    15:00 +4°C° 0 mm 2 mps 759 mmHg 63%
    16:00 +4°C° 0.1 mm 2 mps 759 mmHg 68%
    17:00 +4°C° 0.1 mm 2 mps 759 mmHg 73%
    18:00 +2°C° 0.1 mm 3 mps 759 mmHg 79%
    19:00 +3°C° 0.2 mm 3 mps 759 mmHg 83%
    20:00 +3°C° 0.2 mm 3 mps 759 mmHg 88%
    21:00 +4°C° 0.2 mm 4 mps 759 mmHg 93%
    22:00 +4°C° 0.5 mm 3 mps 759 mmHg 94%
    23:00 +4°C° 0.5 mm 3 mps 759 mmHg 96%

    25 January, Friday

    Time Temperature Precipitation Wind Pressure Humidity
    00:00 +4°C° 0.5 mm 3 mps 758 mmHg 97%
    01:00 +4°C° 0.1 mm 3 mps 758 mmHg 97%
    02:00 +5°C° 0.1 mm 3 mps 758 mmHg 96%
    03:00 +5°C° 0.1 mm 4 mps 758 mmHg 96%
    04:00 +5°C° 0 mm 4 mps 758 mmHg 96%
    05:00 +5°C° 0 mm 4 mps 758 mmHg 96%
    06:00 +5°C° 0 mm 3 mps 758 mmHg 95%
    07:00 +7°C° 0 mm 3 mps 758 mmHg 95%
    08:00 +7°C° 0 mm 3 mps 758 mmHg 95%
    09:00 +7°C° 0 mm 3 mps 758 mmHg 96%
    10:00 +7°C° 0 mm 4 mps 758 mmHg 93%
    11:00 +7°C° 0 mm 4 mps 758 mmHg 90%
    12:00 +8°C° 0 mm 4 mps 758 mmHg 87%
    13:00 +8°C° 0 mm 4 mps 758 mmHg 85%
    14:00 +8°C° 0 mm 4 mps 757 mmHg 83%
    15:00 +8°C° 0 mm 4 mps 757 mmHg 81%
    16:00 +7°C° 0 mm 4 mps 756 mmHg 83%
    17:00 +6°C° 0 mm 4 mps 756 mmHg 85%
    18:00 +6°C° 0 mm 4 mps 755 mmHg 86%
    19:00 +6°C° 0 mm 4 mps 755 mmHg 88%
    20:00 +7°C° 0 mm 5 mps 754 mmHg 90%
    21:00 +7°C° 0 mm 5 mps 754 mmHg 92%
    22:00 +7°C° 0.1 mm 5 mps 753 mmHg 93%
    23:00 +8°C° 0.1 mm 5 mps 752 mmHg 94%

    26 January, Saturday

    Time Temperature Precipitation Wind Pressure Humidity
    00:00 +8°C° 0.1 mm 5 mps 752 mmHg 95%
    01:00 +8°C° 1.1 mm 4 mps 751 mmHg 94%
    02:00 +8°C° 1.1 mm 4 mps 750 mmHg 94%
    03:00 +8°C° 1.1 mm 4 mps 749 mmHg 94%
    04:00 +7°C° 1.1 mm 4 mps 748 mmHg 92%
    05:00 +6°C° 1.1 mm 4 mps 748 mmHg 90%
    06:00 +5°C° 1.1 mm 3 mps 747 mmHg 88%
    07:00 +4°C° 1.6 mm 4 mps 747 mmHg 85%
    08:00 +3°C° 1.6 mm 5 mps 747 mmHg 83%
    09:00 +3°C° 1.6 mm 6 mps 746 mmHg 80%
    10:00 +3°C° 1 mm 6 mps 747 mmHg 78%
    11:00 +3°C° 1 mm 6 mps 747 mmHg 76%
    12:00 +3°C° 1 mm 6 mps 747 mmHg 74%
    13:00 +3°C° 0.1 mm 6 mps 747 mmHg 72%
    14:00 +3°C° 0.1 mm 6 mps 748 mmHg 70%
    15:00 +3°C° 0.1 mm 6 mps 748 mmHg 68%
    16:00 +3°C° 0 mm 6 mps 749 mmHg 70%
    17:00 +3°C° 0 mm 6 mps 749 mmHg 72%
    18:00 +3°C° 0 mm 6 mps 750 mmHg 73%
    19:00 +2°C° 0 mm 6 mps 751 mmHg 72%
    20:00 +2°C° 0 mm 6 mps 751 mmHg 72%
    21:00 +1°C° 0 mm 6 mps 752 mmHg 71%
    22:00 +1°C° 0 mm 6 mps 752 mmHg 70%
    23:00 0°C° 0 mm 5 mps 752 mmHg 69%

    27 January, Sunday

    Time Temperature Precipitation Wind Pressure Humidity
    00:00 0°C° 0 mm 5 mps 753 mmHg 68%
    01:00 -1°C° 0 mm 5 mps 753 mmHg 69%
    02:00 -1°C° 0 mm 5 mps 753 mmHg 69%
    03:00 -1°C° 0 mm 5 mps 753 mmHg 69%
    04:00 -1°C° 0 mm 4 mps 753 mmHg 71%
    05:00 -1°C° 0 mm 4 mps 754 mmHg 74%
    06:00 -1°C° 0 mm 4 mps 754 mmHg 76%
    07:00 -1°C° 0 mm 4 mps 754 mmHg 75%
    08:00 -1°C° 0 mm 4 mps 754 mmHg 75%
    09:00 -1°C° 0 mm 4 mps 754 mmHg 74%
    10:00 0°C° 0 mm 4 mps 754 mmHg 68%
    11:00 +1°C° 0 mm 5 mps 754 mmHg 61%
    12:00 +2°C° 0 mm 5 mps 754 mmHg 54%
    13:00 +2°C° 0 mm 5 mps 754 mmHg 53%
    14:00 +2°C° 0 mm 5 mps 753 mmHg 53%
    15:00 +3°C° 0 mm 4 mps 753 mmHg 52%
    16:00 +1°C° 0 mm 4 mps 754 mmHg 55%
    17:00 +1°C° 0 mm 3 mps 754 mmHg 59%
    18:00 +1°C° 0 mm 3 mps 754 mmHg 62%
    19:00 0°C° 0 mm 3 mps 755 mmHg 63%
    20:00 0°C° 0 mm 3 mps 755 mmHg 64%
    21:00 0°C° 0 mm 3 mps 756 mmHg 66%
    22:00 0°C° 0 mm 3 mps 756 mmHg 66%
    23:00 -1°C° 0 mm 3 mps 756 mmHg 67%
    Show more